Regional Weather Roundup
Issued by NWS State College, PA

Home | Current Version | Previous Version | Text Only | Print | Product List | Glossary Off
Versions: 1 2 3 4 5 6 7 8 9 10 11 12 13 14 15 16 17 18 19 20 21 22 23 24 25 26 27 28 29 30 31 32 33 34 35 36 37 38 39 40 41 42 43 44 45 46 47 48 49 50

000
ASUS41 KCTP 272310
RWRCTP

REGIONAL WEATHER ROUNDUP
NATIONAL WEATHER SERVICE STATE COLLEGE PA
700 PM EDT MON APR 27 2015

Note: "fair" indicates few or no clouds below 12,000 feet with no
significant weather and/or obstructions to visibility.

* = STATION THAT DOES NOT REPORT PRECIPITATION /E.G. RAIN...SNOW...ETC/
    THUNDER OR FOG.

PAZ002>004-007>009-013>016-020>023-029>032-280000-
WESTERN PENNSYLVANIA

CITY           SKY/WX    TMP DP  RH WIND       PRES   REMARKS
ERIE           CLOUDY    42  36  79 W7        29.97R
MEADVILLE      CLOUDY    41  35  79 NW8       29.96R
FRANKLIN*      CLOUDY    41  32  70 NW5       29.96R
NEW CASTLE     CLOUDY    45  36  70 NW9       29.99R
BEAVER COUNTY  CLOUDY    43  34  70 NW7       29.97R
BUTLER*        CLOUDY    41  34  75 NW6       29.98R
PITTSBURGH INT CLOUDY    44  34  67 NW14      29.97R
PITTSBURGH     CLOUDY    43  31  62 NW13G21   29.95R
INDIANA*       CLOUDY    45  36  70 NW7G13    29.95R
LATROBE        CLOUDY    45  36  70 NW12      29.97R
WASHINGTON CO* CLOUDY    43  30  61 NW10G20   29.99S
$$

PAZ004>006-010>012-017>019-024>028-033>037-041-042-045-046-049>053-280000-
CENTRAL PENNSYLVANIA

CITY           SKY/WX    TMP DP  RH WIND       PRES   REMARKS
BRADFORD       CLOUDY    40  33  76 N8        29.89R
DUBOIS         CLOUDY    44  32  62 NW12      29.89R
CLEARFIELD     MOSUNNY   45  37  73 NW10      29.87R
JOHNSTOWN      LGT RAIN  39  36  89 NW12      29.88R
ALTOONA        MOSUNNY   46  36  68 NW13      29.86R
STATE COLLEGE  PTSUNNY   48  36  61 NW8       29.84R
WILLIAMSPORT   PTSUNNY   53  34  48 NW10      29.82R
SELINSGROVE    CLOUDY    53  36  52 N8        29.81R
FT INDIANTOWN  PTCLDY    54  31  41 NW9       29.79R
CAPITAL CITY   MOCLDY    54  35  48 W15       29.80R
HARRISBURG     MOCLDY    55  36  48 NW16      29.79R
YORK           CLOUDY    53  36  52 NW10      29.80R
$$

PAZ038>040-043-044-047-048-054-055-060>062-067>071-280000-
EASTERN PENNSYLVANIA

CITY           SKY/WX    TMP DP  RH WIND       PRES   REMARKS
SCRANTON       CLOUDY    49  32  52 N14G24    29.78R
MOUNT POCONO   CLOUDY    45  31  58 NW22G30   29.73R
ALLENTOWN      MOCLDY    55  33  43 NW12G20   29.74R
QUAKERTOWN*    CLOUDY    54  32  43 NW7       29.75R
READING        MOCLDY    55  31  39 NW9       29.76R
LANCASTER      MOCLDY    54  32  43 NW13      29.77R
COATESVILLE    MOCLDY    54  32  43 NW13G18   29.77R
POTTSTOWN      CLOUDY    54  30  40 NW10      29.76R
BLUE BELL      MOCLDY    55  32  41 NW6       29.73R
DOYLESTOWN     CLOUDY    54  31  41 NW9G21    29.72R
WILLOW GROVE   NOT AVBL
NORTH PHILA    CLOUDY    58  29  33 NW16      29.75R
PHILADELPHIA   MOCLDY    58  30  34 NW13      29.75R
$$


USA.gov is the U.S. government's official web portal to all federal, state and local government web resources and services.